• In Uzbekistan
  • List of Countries
  • For 7 days
  • Water Temperature
  • Satellite Maps
  • Weather Map
  • Weather Widgets
  • user-avatar
    Login

    Hourly Weather Villefranche-sur-Saone

    Today, 19 November, Sunday

    Time Temperature Precipitation Wind Pressure Humidity
    00:00 +2°C° 0 mm 1 mps 750 mmHg 95%
    01:00 +2°C° 0 mm 1 mps 750 mmHg 94%
    02:00 +2°C° 0 mm 1 mps 749 mmHg 94%
    03:00 +2°C° 0 mm 1 mps 749 mmHg 94%
    04:00 +2°C° 0 mm 1 mps 749 mmHg 93%
    05:00 +3°C° 0 mm 1 mps 749 mmHg 92%
    06:00 +3°C° 0 mm 1 mps 749 mmHg 90%
    07:00 +4°C° 0.1 mm 1 mps 749 mmHg 88%
    08:00 +5°C° 0.1 mm 1 mps 749 mmHg 85%
    09:00 +6°C° 0.1 mm 1 mps 749 mmHg 83%
    10:00 +7°C° 0 mm 1 mps 749 mmHg 82%
    11:00 +7°C° 0 mm 1 mps 749 mmHg 82%
    12:00 +8°C° 0 mm 1 mps 749 mmHg 82%
    13:00 +8°C° 0 mm 1 mps 749 mmHg 85%
    14:00 +8°C° 0 mm 1 mps 749 mmHg 88%
    15:00 +7°C° 0 mm 1 mps 749 mmHg 90%
    16:00 +7°C° 0 mm 1 mps 749 mmHg 92%
    17:00 +6°C° 0 mm 1 mps 749 mmHg 94%
    18:00 +6°C° 0 mm 1 mps 750 mmHg 96%
    19:00 +5°C° 0 mm 1 mps 750 mmHg 96%
    20:00 +5°C° 0 mm 1 mps 750 mmHg 96%
    21:00 +5°C° 0 mm 1 mps 751 mmHg 96%
    22:00 +4°C° 0 mm 1 mps 751 mmHg 96%
    23:00 +4°C° 0 mm 1 mps 751 mmHg 96%

    Tomorrow, 20 November, Monday

    Time Temperature Precipitation Wind Pressure Humidity
    00:00 +3°C° 0 mm 1 mps 751 mmHg 96%
    01:00 +3°C° 0 mm 1 mps 750 mmHg 95%
    02:00 +3°C° 0 mm 1 mps 750 mmHg 95%
    03:00 +2°C° 0 mm 1 mps 750 mmHg 95%
    04:00 +1°C° 0 mm 0 mps 750 mmHg 95%
    05:00 +1°C° 0 mm 0 mps 750 mmHg 95%
    06:00 +1°C° 0 mm 0 mps 750 mmHg 95%
    07:00 +2°C° 0 mm 0 mps 750 mmHg 90%
    08:00 +4°C° 0 mm 0 mps 750 mmHg 85%
    09:00 +5°C° 0 mm 0 mps 751 mmHg 81%
    10:00 +7°C° 0 mm 0 mps 750 mmHg 73%
    11:00 +8°C° 0 mm 0 mps 750 mmHg 66%
    12:00 +11°C° 0 mm 1 mps 749 mmHg 59%
    13:00 +10°C° 0 mm 1 mps 749 mmHg 62%
    14:00 +9°C° 0 mm 0 mps 749 mmHg 64%
    15:00 +8°C° 0 mm 0 mps 749 mmHg 67%
    16:00 +7°C° 0 mm 0 mps 749 mmHg 72%
    17:00 +5°C° 0 mm 0 mps 749 mmHg 76%
    18:00 +4°C° 0 mm 0 mps 749 mmHg 81%
    19:00 +4°C° 0 mm 0 mps 749 mmHg 81%
    20:00 +5°C° 0 mm 1 mps 749 mmHg 81%
    21:00 +4°C° 0 mm 1 mps 749 mmHg 81%
    22:00 +4°C° 0 mm 1 mps 749 mmHg 81%
    23:00 +4°C° 0 mm 1 mps 749 mmHg 81%

    Day after tomorrow, 21 November, Tuesday

    Time Temperature Precipitation Wind Pressure Humidity
    00:00 +4°C° 0 mm 1 mps 749 mmHg 81%
    01:00 +4°C° 0 mm 1 mps 749 mmHg 81%
    02:00 +4°C° 0 mm 1 mps 749 mmHg 81%
    03:00 +4°C° 0 mm 1 mps 749 mmHg 81%
    04:00 +4°C° 0 mm 1 mps 748 mmHg 81%
    05:00 +4°C° 0 mm 1 mps 748 mmHg 81%
    06:00 +4°C° 0 mm 1 mps 748 mmHg 81%
    07:00 +6°C° 0 mm 1 mps 748 mmHg 76%
    08:00 +7°C° 0 mm 1 mps 748 mmHg 71%
    09:00 +8°C° 0 mm 0 mps 748 mmHg 66%
    10:00 +11°C° 0 mm 1 mps 747 mmHg 62%
    11:00 +12°C° 0 mm 1 mps 747 mmHg 57%
    12:00 +14°C° 0 mm 1 mps 746 mmHg 53%
    13:00 +14°C° 0 mm 1 mps 746 mmHg 57%
    14:00 +13°C° 0 mm 1 mps 746 mmHg 62%
    15:00 +11°C° 0 mm 0 mps 745 mmHg 66%
    16:00 +11°C° 0 mm 1 mps 746 mmHg 70%
    17:00 +9°C° 0 mm 1 mps 746 mmHg 74%
    18:00 +8°C° 0 mm 1 mps 746 mmHg 78%
    19:00 +8°C° 0 mm 1 mps 746 mmHg 79%
    20:00 +7°C° 0 mm 1 mps 746 mmHg 79%
    21:00 +7°C° 0 mm 1 mps 746 mmHg 79%
    22:00 +7°C° 0 mm 1 mps 746 mmHg 79%
    23:00 +7°C° 0 mm 1 mps 746 mmHg 78%

    22 November, Wednesday

    Time Temperature Precipitation Wind Pressure Humidity
    00:00 +6°C° 0 mm 1 mps 746 mmHg 78%
    01:00 +6°C° 0 mm 1 mps 746 mmHg 77%
    02:00 +6°C° 0 mm 1 mps 746 mmHg 76%
    03:00 +6°C° 0 mm 1 mps 745 mmHg 76%
    04:00 +6°C° 0 mm 1 mps 745 mmHg 75%
    05:00 +6°C° 0 mm 1 mps 745 mmHg 74%
    06:00 +5°C° 0 mm 1 mps 745 mmHg 73%
    07:00 +6°C° 0 mm 2 mps 745 mmHg 68%
    08:00 +8°C° 0 mm 2 mps 745 mmHg 63%
    09:00 +9°C° 0 mm 2 mps 745 mmHg 59%
    10:00 +12°C° 0 mm 2 mps 744 mmHg 55%
    11:00 +13°C° 0 mm 3 mps 744 mmHg 52%
    12:00 +16°C° 0 mm 3 mps 744 mmHg 49%
    13:00 +14°C° 0 mm 3 mps 743 mmHg 52%
    14:00 +14°C° 0 mm 3 mps 743 mmHg 55%
    15:00 +13°C° 0 mm 3 mps 743 mmHg 59%
    16:00 +12°C° 0 mm 3 mps 743 mmHg 65%
    17:00 +11°C° 0 mm 3 mps 743 mmHg 72%
    18:00 +9°C° 0 mm 3 mps 743 mmHg 79%
    19:00 +9°C° 0 mm 3 mps 744 mmHg 82%
    20:00 +9°C° 0 mm 3 mps 744 mmHg 84%
    21:00 +8°C° 0 mm 4 mps 744 mmHg 87%
    22:00 +10°C° 0 mm 4 mps 744 mmHg 87%
    23:00 +10°C° 0 mm 4 mps 744 mmHg 86%

    23 November, Thursday

    Time Temperature Precipitation Wind Pressure Humidity
    00:00 +10°C° 0 mm 4 mps 744 mmHg 86%
    01:00 +10°C° 0 mm 4 mps 744 mmHg 85%
    02:00 +10°C° 0 mm 4 mps 744 mmHg 85%
    03:00 +10°C° 0 mm 4 mps 744 mmHg 84%
    04:00 +10°C° 0 mm 4 mps 745 mmHg 85%
    05:00 +9°C° 0 mm 3 mps 745 mmHg 86%
    06:00 +9°C° 0 mm 3 mps 745 mmHg 86%
    07:00 +10°C° 0 mm 4 mps 745 mmHg 82%
    08:00 +11°C° 0 mm 4 mps 746 mmHg 78%
    09:00 +12°C° 0 mm 4 mps 746 mmHg 74%
    10:00 +14°C° 0 mm 4 mps 746 mmHg 70%
    11:00 +15°C° 0 mm 4 mps 746 mmHg 65%
    12:00 +16°C° 0 mm 5 mps 745 mmHg 61%
    13:00 +15°C° 0 mm 4 mps 745 mmHg 63%
    14:00 +15°C° 0 mm 4 mps 745 mmHg 66%
    15:00 +14°C° 0 mm 4 mps 745 mmHg 68%
    16:00 +13°C° 0 mm 3 mps 746 mmHg 73%
    17:00 +12°C° 0 mm 3 mps 746 mmHg 79%
    18:00 +11°C° 0 mm 3 mps 747 mmHg 84%
    19:00 +10°C° 0 mm 3 mps 747 mmHg 86%
    20:00 +10°C° 0 mm 3 mps 747 mmHg 87%
    21:00 +10°C° 0 mm 3 mps 747 mmHg 89%
    22:00 +9°C° 0 mm 3 mps 747 mmHg 89%
    23:00 +9°C° 0 mm 3 mps 747 mmHg 90%

    24 November, Friday

    Time Temperature Precipitation Wind Pressure Humidity
    00:00 +9°C° 0 mm 3 mps 747 mmHg 90%
    01:00 +9°C° 0 mm 3 mps 747 mmHg 90%
    02:00 +8°C° 0 mm 3 mps 747 mmHg 89%
    03:00 +8°C° 0 mm 3 mps 747 mmHg 89%
    04:00 +8°C° 0 mm 3 mps 747 mmHg 88%
    05:00 +8°C° 0 mm 3 mps 746 mmHg 87%
    06:00 +8°C° 0 mm 3 mps 746 mmHg 86%
    07:00 +9°C° 0 mm 3 mps 746 mmHg 79%
    08:00 +10°C° 0 mm 4 mps 746 mmHg 72%
    09:00 +12°C° 0 mm 4 mps 746 mmHg 65%
    10:00 +13°C° 0 mm 5 mps 746 mmHg 59%
    11:00 +14°C° 0 mm 6 mps 745 mmHg 54%
    12:00 +15°C° 0 mm 6 mps 745 mmHg 49%
    13:00 +15°C° 0 mm 6 mps 745 mmHg 51%
    14:00 +14°C° 0 mm 5 mps 744 mmHg 54%
    15:00 +14°C° 0 mm 5 mps 744 mmHg 56%
    16:00 +13°C° 0 mm 5 mps 744 mmHg 60%
    17:00 +12°C° 0 mm 4 mps 744 mmHg 63%
    18:00 +11°C° 0 mm 4 mps 745 mmHg 67%
    19:00 +11°C° 0 mm 4 mps 744 mmHg 67%
    20:00 +11°C° 0 mm 4 mps 744 mmHg 66%
    21:00 +11°C° 0 mm 4 mps 744 mmHg 66%
    22:00 +11°C° 0 mm 4 mps 744 mmHg 64%
    23:00 +10°C° 0 mm 5 mps 744 mmHg 62%
    Show more